Regional Weather Roundup
Issued by NWS

Home | Current Version | Previous Version | Graphics & Text | Print | Product List | Glossary Off
Versions: 1 2 3 4 5 6 7 8 9 10 11 12 13 14 15 16 17 18 19 20 21 22 23 24 25 26 27 28 29 30 31 32 33 34 35 36 37 38 39 40 41 42 43 44 45 46 47 48 49

000
ASUS43 KDMX 291207
RWRIA

WEATHER ROUNDUP FOR IOWA
NATIONAL WEATHER SERVICE DES MOINES IA
700 AM CDT WED JUL 29 2015

NOTE: "FAIR" INDICATES FEW OR NO CLOUDS BELOW 12,000 FEET WITH NO
SIGNIFICANT WEATHER AND/OR OBSTRUCTIONS TO VISIBILITY.

* - THESE STATIONS ARE NOT NWS STATIONS...THUS NOT UNDER NWS
QUALITY CONTROL.  THEY ALSO DO NOT REPORT WEATHER SUCH
AS PRECIPITATION OR FOG.

IAZ001>003-012>014-020>022-031>034-043>046-291300-
   NORTHWEST IOWA

CITY           SKY/WX    TMP DP  RH WIND       PRES   REMARKS
CARROLL *      CLEAR     61  59  94 W7        30.11S
CHEROKEE *     FOG       54  54 100 CALM      30.12R VSB 1/2
DENISON *      CLEAR     57  57 100 CALM      30.11S
LE MARS *      CLEAR     55  55 100 CALM      30.13R
ORANGE CITY *  CLEAR     55  52  88 CALM      30.12R
SHELDON *      CLEAR     57  54  88 SW6       30.09S
SIOUX CITY     CLEAR     58  55  90 CALM      30.13R
6HR MIN TEMP:  57; 6HR MAX TEMP:  64;

SPENCER        CLEAR     58  52  80 W8        30.10R
6HR MIN TEMP:  54; 6HR MAX TEMP:  61;

STORM LAKE *   CLEAR     61  57  88 W9        30.13R
$$

IAZ055>058-069>071-079>083-090>094-291300-
   SOUTHWEST IOWA

CITY           SKY/WX    TMP DP  RH WIND       PRES   REMARKS
ATLANTIC *     CLEAR     61  61 100 CALM      30.12R
AUDUBON *      CLEAR     61  57  88 CALM      30.13R
CLARINDA *     CLOUDY    70  70 100 N6        30.13R
COUNCIL BLFS * CLEAR     63  61  94 CALM      30.14R
CRESTON *      CLOUDY    70  70 100 NW6       30.12R
HARLAN  *      CLEAR     59  59 100 N5        30.16R
LAMONI         CLOUDY    72  70  93 W3        30.09R
6HR MIN TEMP:  71; 6HR MAX TEMP:  72; 6HR PCP:  0.20;

RED OAK *      MOCLDY    64  64 100 CALM      30.12R
SHENANDOAH *   CLEAR     66  64  94 CALM      30.13R
$$

IAZ047>049-059>061-072>074-084-291300-
   CENTRAL IOWA

CITY           SKY/WX    TMP DP  RH WIND       PRES   REMARKS
AMES           MOCLDY    64  62  93 W5        30.09R
6HR MIN TEMP:  63; 6HR MAX TEMP:  72;

ANKENY *       MOCLDY    70  66  88 NW7       30.07F
CHARITON *     CLEAR     70  70 100 NW7       30.08R
DES MOINES     MOCLDY    72  68  87 NW6       30.07F
6HR MIN TEMP:  71; 6HR MAX TEMP:  73; 6HR PCP: TRACE;

GRINNELL*      CLOUDY    70  66  88 NW7       30.07R
KNOXVILLE *    CLEAR     70  68  94 NW8       30.06R
MARSHALLTOWN   MOCLDY    67  63  87 NW9       30.06R
6HR MIN TEMP:  67; 6HR MAX TEMP:  72; 6HR PCP:  0.47;

PELLA *        CLOUDY    70  70 100 NW6       30.07R
PERRY *          N/A     50  45  81 NW5       30.10R
$$

IAZ004>006-015-016-023>025-035-036-291300-
   NORTH CENTRAL IOWA

CITY           SKY/WX    TMP DP  RH WIND       PRES   REMARKS
ALGONA *       CLEAR     59  55  88 W7        30.09R
CLARION *      CLEAR     57  57 100 CALM      30.07S
ESTHERVILLE    CLEAR     57  52  83 SW8       30.08R
6HR MIN TEMP:  54; 6HR MAX TEMP:  61;

FORT DODGE *   CLEAR     61  55  82 W5        30.10S
MASON CITY     MOCLDY    61  56  83 W9        30.07R
6HR MIN TEMP:  60; 6HR MAX TEMP:  65;

FOREST CITY *  CLEAR     59  55  88 CALM      30.06S
IOWA FALLS *     N/A     61  59  91 W3        30.09R
$$

IAZ007>011-017>019-026>030-037>042-050>054-066-291300-
   NORTHEAST IOWA

CITY           SKY/WX    TMP DP  RH WIND       PRES   REMARKS
CEDAR RAPIDS   CLOUDY    67  67 100 W6        30.04R
6HR MIN TEMP:  66; 6HR MAX TEMP:  71; 6HR PCP:  0.10;

CHARLES CITY * CLEAR     63  61  94 W7        30.05S
CLINTON *      CLOUDY    72  70  94 W7        30.02S
DECORAH *      PTSUNNY   66  61  82 CALM      30.01S
DUBUQUE        CLOUDY    71  65  81 NW8       30.02R
6HR MIN TEMP:  70; 6HR MAX TEMP:  74; 6HR PCP: TRACE;

MONTICELLO *   SUNNY     70  68  94 W5        30.02R
OELWEIN *        N/A     68  64  88 W5        30.05R
WATERLOO       CLOUDY    67  62  84 W7        30.04R
6HR MIN TEMP:  67; 6HR MAX TEMP:  74;

$$

IAZ064-065-067-068-078-291300-
   EAST CENTRAL IOWA

CITY           SKY/WX    TMP DP  RH WIND       PRES   REMARKS
DAVENPORT      CLOUDY    72  70  93 NW8       30.01S
6HR MIN TEMP:  72; 6HR MAX TEMP:  75; 6HR PCP:  0.01;

IOWA CITY      CLOUDY    71  68  90 NW9       30.03F
6HR MIN TEMP:  71; 6HR MAX TEMP:  72; 6HR PCP:  0.11;

MT. PLEASANT * CLOUDY    73  69  87 W3        30.04R
MUSCATINE *    SUNNY     72  70  94 NW6       30.01S
QUAD CITIES    CLOUDY    74  70  87 NW7       30.00R
6HR MIN TEMP:  74; 6HR MAX TEMP:  78; 6HR PCP: TRACE;

$$

IAZ062-063-075>077-085>089-095>099-291300-
   SOUTHEAST IOWA

CITY           SKY/WX    TMP DP  RH WIND       PRES   REMARKS
BURLINGTON     CLOUDY    72  71  97 W6        30.02R
6HR MIN TEMP:  72; 6HR MAX TEMP:  77;

FAIRFIELD *    CLEAR     70  68  94 W5        30.05R
FORT MADISON * LGT RAIN  72  72 100 W7        30.04R
KEOKUK *       CLOUDY    72  72 100 W7        30.03S
OSKALOOSA *      N/A     69  67  95 NW5       30.05R
CENTERVILLE *  CLEAR     70  70 100 W7        30.08R
OTTUMWA        CLOUDY    70  69  97 W5        30.04R
6HR MIN TEMP:  70; 6HR MAX TEMP:  71; 6HR PCP:  0.40;

WASHINGTON *   CLEAR     72  70  94 NW6       30.05R
$$

ABBREVIATIONS USED IN REMARKS
   TC - TEMPERATURES IN CELSIUS
  WCI - WIND CHILL INDEX
   HX - HEAT INDEX
  VSB - VISIBILITY
$$



USA.gov is the U.S. government's official web portal to all federal, state and local government web resources and services.